ATLAS 5 CENTAUR DEB, 46652

Orbit data source: Space-Track

ATLAS 5 CENTAUR DEB, 46652 is space debris in HEO originally from a launch on Wed, 17 Sep 2014 UTC launched from the Air Force Eastern Test Range (AFETR). Debris objects in space refer to the collection of defunct objects orbiting the Earth. Examples of debris include non-operational satellites, rocket bodies, and fragments generated from explosions, collisions, or faulty payload assembly.

Loading next visibility...
Identifier
46652, 2014-055DC
Orbit
HEO
Country
Flag of USUS
Related business
Flag of USUnited Launch Alliance/Lockheed Martin (US)
Manufacturer
Unknown
Mission
Spacecraft
Bus & Motor
Unknown
Mass
Unknown
Launch date (UTC)
Icon of a cake. It is the launch day of the satellite!2014-09-17 (11 years ago)
Launch vehicle
Unknown
Launch site
Air Force Eastern Test Range (AFETR)
Object type
Payload
Rocket body
Debris
Shape & HBR
Unknown
Radar Cross Section
RCS unknown

Expand to show TLE details & history
Last TLE update: 1 year ago

TLE from 1 year ago
0 ATLAS 5 CENTAUR DEB
1 46652U 14055DC  24099.56760409 -.00000108  00000-0  00000+0 0  9998
2 46652  20.3344 235.1777 3967316 355.1400   1.7695  1.82545949 23219
Epoch: 2024-04-08T13:37Z
TLE epoch observation values (Epoch: 2024-04-08T13:37:20.993Z)
Latitude
0.00002°
Longitude
-166.51368°
Altitude
10,693.355 km
Speed
5.71 km/s
True Right ascension
15h 40m 31s
True Declination
0° 00' 00"
Sunlit
Object was in daylight at epoch
Visualization orbit readout
Latitude
Unknown
Longitude
Unknown
Altitude
Unknown
Speed
Unknown
Apparent Right ascension
Unknown
Apparent Declination
Unknown
Sunlit
N/A
Visualization observer readout
Local Sidereal Time
15:03:07
Azimuth
Unknown
Elevation
Unknown
Doppler factor
Unknown
Orbital elements
Apogee altitude
33,124.454 km
Perigee altitude
10,683.598 km
Semi-major axis
28,282.163 km
Eccentricity
0.39673
Inclination
20.3344°
RAAN
235.1777°
Arg. of periapsis
355.14°
True anomaly
4.46059°
Mean anomaly
1.7695°
Eccentric anomaly
2.93235°
Mean motion
0.45632 °/min
Orbital period
788.91 mins
BSTAR
0
Loading maneuver chart data...
Computing Atmospheric mass density...

Documentation

Showing up to 5 results
|